Погода в Камышлове

Погода в Камышлове : погода сейчас, прогноз погоды и архив. Всё, что Вы хотите узнать о погоде в Камышлове!

Хотите узнать прогноз погоды в Камышлове? Тогда Вам сюда: Погода в Камышлове

Поиск расширенной информации на нашем сайте:

Другие новости

Новости СМИ2

Главная страница сайта

Новости сайта

03.07.2017

Напоминаем, что на нашем специализированном сайте Метеоцентр.Азия вы можете получить высокодетализированные автоматические прогнозы погоды по пунктам России, СНГ и мира в авиационном формате (включающие направление и скорость ветра, видимость, явления погоды, количество и форму облачности, нижнюю и верхнюю границу облачности).


Погода в Камышлове - сегодня

Время (UTC), дата Ветер
(°,м/с) 
Видим.   Явления Облачность Т
(°С)
Тd
(°С)
f(%) Тe
(°С)
Pmin
(гПа)
dP
(гПа)
Po
(мм)
O2
(г/м3)
Тmin Tmax R s Состояние
почвы
21 18.09.17 290 (З) 4000 м    ясно 
+2.5 -0.3 82 +2  1020.5  0.8  753  301           
00 19.09.17 260 (З) 4000 м    ясно 
+0.8 -1 88 1021.4  0.9  754  303           
06 19.09.17 200 (Ю) 20000 м    8/0 средняя 
[Ac trans]
+8 +1.2 62 +9  1022.3  0.1  755  295           
09 19.09.17 160 (Ю) 20000 м  {ливн. осадки}  10/10 600 м 
[Sc]
+8.5 +5.1 79 +9  1020.8  -1.4  754  294           
12 19.09.17 100 (В) 20000 м  {ливн. осадки}  10/10 600 м 
[Sc]
+9 +6.4 84 +9  1019.2  -1.6  753  293           
18 19.09.17 130 (ЮВ) 4000 м  {ливн. осадки}  10/10 600 м 
[Sc]
+8.9 +6.4 84 +8  1014.5  -2.6  749  291           
21 19.09.17 180 (Ю) 4000 м    10/10 600 м 
[Sc]
+9.1 +7.1 87 +10  1013.1  -1.4  748  291           
00 20.09.17 170 (Ю) 4000 м    10/10 600 м 
[Sc]
+10.6 +8.6 87 +12  1011.1  -1.9  747  288           
06 20.09.17 280 (З) 7-11{11}  20000 м    8/4 600 м средняя, верхняя 
[Cu med, cong|Ac trans|Ci fib]
+19.8 +9.7 52 +21  1011  0.4  747  279           
12 20.09.17 290 (З) 4{11}  20000 м    9/4 600 м кучево-дожд., средняя, верхняя 
[Cb cap|Ac trans|Ci sp]
+18.1 +8 52 +18  1013.9  1.4  749  282           
18 20.09.17 290 (З) 4000 м    10/10 600 м кучево-дожд. 
[Cb cap]
+13.2 +7.8 70 +13  1015.4  0.6  750  287           
21 20.09.17 270 (З) 4000 м    10/10 600 м 
[Sc]
+11.1 +7.1 76 +11  1015.9  0.3  750  289           
00 21.09.17 270 (З) 4000 м    10/10 600 м 
[Sc]
+11 +7.7 80 +11  1016.6  0.7  751  290           
06 21.09.17 360 (С) 20000 м    10/10 600 м 
[Sc]
+9.8 +5.4 74 +9  1020.5  2.3  754  292  +8.8         
09 21.09.17 350 (С) 20000 м    10/10 600 м 
[Sc]
+10.1 +5 71 +10  1021.9  1.4  755  293           
12 21.09.17 030 (СВ) 20000 м    10/10 600 м 
[Sc]
+9.6 +3.5 66 +9  1023.8  1.8  756  294           
18 21.09.17 360 (С) 4000 м    10/10 600 м 
[Sc]
+7.2 +4.2 81 +7  1026.6  758  297           
21 21.09.17 350 (С) 4000 м    10/10 600 м 
[Sc]
+6.5 +4.1 85 +6  1027.7  759  298           
00 22.09.17 360 (С) 4000 м    10/10 600 м 
[Sc]
+6 +3.7 85 +7  1028.3  0.6  759  299           
06 22.09.17 350 (С) 20000 м    8/0 средняя 
[Ac trans]
+8.2 +1.1 61 +7  1029.6  0.4  761  297           
09 22.09.17 360 (С) 5{10}  20000 м    8/4 600 м средняя 
[Cu med, cong|Ac trans]
+10.3 +0.5 51 +9  1029.3  -0.2  760  295           
12 22.09.17 010 (С) 5-10{10}  20000 м    6/6 600 м 
[Cu med, cong]
+9.1 -1.6 47 +8  1030.8  1.3  761  297           
18 22.09.17 010 (С) 4000 м    ясно 
+1.3 -2.5 76 +1  1033.2  0.8  763  306           
21 22.09.17 360 (С) 4000 м    ясно 
+0 -2.9 81 +1  1034.3  764  308           
00 23.09.17 010 (С) 4000 м    ясно 
-1.4 -3.6 85 -1  1035.3  0.9  764  310           
Время (UTC), дата Ветер
(°,м/с) 
Видим.   Явления Облачность Т
(°С)
Тd
(°С)
f(%) Тe
(°С)
Pmin
(гПа)
dP
(гПа)
Po
(мм)
O2
(г/м3)
Тmin Tmax R s Состояние
почвы

Для получения пояснительной информации подведите курсор к названию столбца.

ПОГОДА в Камышлове - архив

Всё, что Вы хотите узнать о погоде в Камышлове - удобно и подробно!

Выберите нужную дату (начиная с 1 января 2015* года) и нажмите кнопку "Найти".
Будут отображены архивные сводки погоды по пункту Камышлов, начиная с указанной даты.


Отображать данные в формате CSV (для использования в таблицах Excel)


Внимание! Наш архив погоды предназначен исключительно для личного некоммерческого использования в познавательных целях. Если Вам необходимы официальные справки о состоянии погоды (для производственных, юридических, коммерческих и т.п. целей), обращайтесь в органы Росгидромета.

*Примечание: данная дата относится к архиву по метеостанциям СССР (Россия, СНГ, Балтия).
Архив по метеостанциям Зарубежной Европы и Азии (кроме Китая) хранится 10 дней, по другим регионам земного шара (Китай, Африка, Америка, Австралия, Океания) - 1 день.

Камышлов - район местоположения метеостанции


Название, широта, долгота, высота метеостанции:
Камышлов 56.9°ш. 62.7°д. 127 м над ур. моря [Российская Федерация]

Дополнительная информация

В oтличие oт бoльшинства пoгoдных сайтoв мы публикуем пoдрoбную метеoинфoрмацию в детальнoм прoфессиoнальнoм фoрмате.

Характеристики температуры и влажнoсти вoздуха измеряются на высoте 2 м в тени вдали oт зданий и деревьев.
Скoрoсть ветра измеряется на высoте 10 м (на урoвне рoста челoвека скoрoсть ветра ниже в 1.5-2 раза). Если метеoстанция нахoдится в гoрoде или в лесу, тo скoрoсть ветра занижена на 2-4 м/с пo сравнению с oткрытым местoм. Скoрoсть ветра над акватoриями крупных рек и oзёр, а также на вершинах хoлмoв на 2-5 м/с выше, чем в oбычных услoвиях.
Атмoсфернoе давление в разных тoчках местнoсти мoжет значительнo oтличаться oт давления на метеoстанции, в зависимoсти oт услoвий рельефа (при пoдъёме на 10 м давление пoнижается примернo на 1 мм рт.ст.).